Regional Weather Roundup
Issued by NWS Upton, NY

Current Version | Previous Version | Text Only | Print | Product List | Glossary On
Versions: 1 2 3 4 5 6 7 8 9 10 11 12 13 14 15 16 17 18 19 20 21 22 23 24 25 26 27 28 29 30 31 32 33 34 35 36 37 38 39 40 41 42 43 44 45 46 47 48 49 50
000
ASUS41 KOKX 310205
RWROKX

REGIONAL WEATHER ROUNDUP
NATIONAL WEATHER SERVICE NEW YORK NY
1000 PM EDT SAT AUG 30 2014

NOTE: "FAIR" INDICATES FEW OR NO CLOUDS BELOW 12,000 FEET WITH NO
SIGNIFICANT WEATHER AND/OR OBSTRUCTIONS TO VISIBILITY.

NYZ071-072-176-178-NJZ106-104-310300-
NEW YORK CITY METRO AREA


CITY           SKY/WX    TMP DP  RH WIND       PRES   REMARKS
CENTRAL PARK   CLOUDY    74  63  68 VRB6      30.19S
LAGUARDIA APRT CLOUDY    74  65  73 S12       30.16S
KENNEDY INTL   CLOUDY    74  66  76 S13       30.18S
NEWARK/LIBERTY CLOUDY    74  65  73 S10       30.16S
BRNX BOT. GARD   N/A     73  63  68 S3        30.17F
TETERBORO      CLOUDY    74  65  73 S7        30.15S
$$

NYZ177-179-078>081-310300-
LONG ISLAND NEW YORK

CITY           SKY/WX    TMP DP  RH WIND       PRES   REMARKS
FARMINGDALE    CLOUDY    72  66  81 S13       30.18S
ISLIP          CLOUDY    72  64  76 S10       30.16F
SHIRLEY        CLOUDY    72  64  76 S8        30.19S
WESTHAMPTON    CLOUDY    72  64  76 S8        30.20S
MONTAUK POINT    N/A     71  65  81 S6        30.20F
$$

NYZ052-065-067-310300-
HUDSON VALLEY

CITY           SKY/WX    TMP DP  RH WIND       PRES   REMARKS
WHITE PLAINS   MOCLDY    72  65  78 S7        30.17S
NEWBURGH       CLOUDY    72  64  78 VRB5      30.17S
MONTGOMERY     CLOUDY    70  63  78 CALM      30.15S
POUGHKEEPSIE   CLOUDY    73  64  73 CALM      30.14S
ALBANY         MOCLDY    72  61  68 S8        30.10S
$$

NJZ001-105-106-008-010-013-015-019>022-104-310300-
NEW JERSEY

CITY           SKY/WX    TMP DP  RH WIND       PRES   REMARKS
NEWARK/LIBERTY CLOUDY    74  65  73 S10       30.16S
TETERBORO      CLOUDY    74  65  73 S7        30.15S
CALDWELL       CLOUDY    74  63  68 VRB3      30.16F
MORRISTOWN     CLOUDY    73  64  73 S7        30.16F
SOMERVILLE     CLOUDY    73  62  68 S6        30.15R
LINDEN         FAIR      77  65  66 SW5       30.18S
SUSSEX         CLOUDY    70  64  81 CALM      30.16S
ANDOVER          N/A     71  64  78 SW5       30.17S
TRENTON        CLOUDY    72  60  66 S8        30.16S
MILLVILLE      CLEAR    N/A N/A N/A SE5       30.17S
ATLANTIC CITY  MOCLDY    73  67  81 S8        30.18S
WRIGHTSTOWN    CLOUDY    71  66  82 S8        30.15S
TOMS RIVER     CLOUDY    72  66  83 S3        30.18S
BELMAR         PTCLDY    72  63  73 S3        30.18R
$$

PAZ047>061-062-071-310300-
EASTERN PENNSYLVANIA

CITY           SKY/WX    TMP DP  RH WIND       PRES   REMARKS
PHILADELPHIA   CLOUDY    75  62  64 S6        30.17R
ALLENTOWN      CLOUDY    75  62  64 S5        30.16R
SCRANTON       CLOUDY    72  61  68 S8        30.14S
$$

CTZ002-004>006-009-010-012-RIZ004-006-007-MAZ004-011-015-310300-
SOUTHERN NEW ENGLAND
 IN CT

CITY           SKY/WX    TMP DP  RH WIND       PRES   REMARKS
BRADLEY INTL   CLOUDY    71  61  70 S8        30.14S
HARTFORD       CLOUDY    70  62  76 S6        30.15S
DANBURY        CLOUDY    70  64  81 S7        30.18S
WTRBRY/OXFORD  CLOUDY    68  61  77 S6        30.19S
BRIDGEPORT     CLOUDY    74  66  76 SW15      30.17S
MERIDEN        CLOUDY    71  62  73 SW7       30.16F
NEW HAVEN      CLOUDY    74  64  71 SW9       30.18S
CHESTER        FAIR      66  63  88 S5        30.19S
GROTON         CLEAR     69  65  86 SW13      30.17S
WILLIMANTIC    CLEAR     66  61  84 CALM      30.18S

 IN RI

CITY           SKY/WX    TMP DP  RH WIND       PRES   REMARKS
PROVIDENCE     MOCLDY    65  59  81 S7        30.19S
BLOCK ISLAND   CLEAR     68  61  77 S8        30.20S
WESTERLY       MOCLDY    69  64  84 S8        30.19F

 IN MA

CITY           SKY/WX    TMP DP  RH WIND       PRES   REMARKS
BOSTON         MOCLDY    67  59  75 S12       30.16S
WORCESTER      PTCLDY    63  59  87 SW13      30.17S
WESTFIELD      CLOUDY    70  61  73 S7        30.14S
PROVINCETOWN   PTCLDY    66  61  82 S13       30.19S
NANTUCKET      PTCLDY    65  61  87 S8        30.21S
$$

ANZ330-335-338-340-345-350-353-355-310300-
COASTAL MARINE OBSERVATIONS


STATION/POSITION TIME  SKY/WX   TEMP    WIND        PRES    VSBY  WAVE
                                AIR SEA DIR/SP/G                  HT/PER
                 (UTC)          (F)     (DEG/KT/KT) (MB)    (MI)  (FT/S)
NY HARB ENTRANCE NOT AVBL
4S FIRE IS       NOT AVBL
23SW MTP         0200                                 N/A           2/ 8
HUDSON CANYON    0200            73 72  160/  8/ 10 1022.4          2/ 8
EXECUTION ROCKS  0200            74 74  210/ 14/ 17   N/A
WESTERN LI SOUND 0200            74     190/ 12/ 16   N/A           1
CENTRAL LI SOUND 0100            71 72  200/ 12/ 14   N/A           1/ 3
EASTERN LI SOUND 0100            70 69  200/ 12/ 16   N/A
ROBBINS REEF     0200            73     190/ 13/ 16   N/A
$$


>>>>>>>>>>>>>>>>>>>>>>>>>>>> KEY <<<<<<<<<<<<<<<<<<<<<<<<<<<
>                                                          <
>     SKY/WX - SKY CONDITION/PRESENT WEATHER               <
>     TMP    - TEMPERATURE IN FAHRENHEIT                   <
>     DP     - DEWPOINT IN FAHRENHEIT                      <
>     RH     - RELATIVE HUMIDITY IN PERCENT                <
>     WIND   - DIRECTION AND SPEED IN MPH                  <
>     PRES   - MEAN SEA LEVEL PRESSURE IN INCHES OF HG     <
>     WCI    - WIND CHILL INDEX                            <
>     VSB    - VISIBILITY IN MILES                         <
>     HX     - HEAT INDEX                                  <
>     TC     - TEMPERATURE IN CELSIUS                      <
>     VRB    - VARIABLE WIND DIRECTION                     <
>                                                          <
>>>>>>>>>>>>>>>>>>>>>>>>>>>> KEY <<<<<<<<<<<<<<<<<<<<<<<<<<<




USA.gov is the U.S. government's official web portal to all federal, state and local government web resources and services.